Theta_e
339 339 339 339 339 338 338 338 338 338 338 338 337 337 335 334 334 333 333 334 333 334 334 335 335 335 335 336 336 336 337 337 336 335 335 335 334 333 333 333 333 333 332 332 331 331 331 331 331 331 331 331 331 330 330 330 331 331 330 330 330 330 330 330 330 330 330 330 330 330 329 329 330 329 328 328 329 329 329 330 330 330 330 330 330
339 339 338 339 340 339 338 338 339 339 339 338 336 336 335 335 335 335 335 335 335 335 336 335 334 334 335 335 336 336 336 336 336 335 334 334 333 332 332 333 333 333 333 332 332 332 331 331 331 331 331 331 331 331 331 330 330 330 330 329 329 329 330 329 329 329 329 329 329 329 329 329 329 328 328 328 328 328 329 329 329 329 330 330 330
338 337 338 338 339 339 337 337 337 338 338 336 336 336 336 336 336 335 335 335 335 334 334 333 333 333 333 334 334 335 335 334 334 334 333 333 333 332 332 332 332 332 332 331 331 331 331 331 331 331 331 330 330 330 330 330 330 329 329 329 329 329 329 329 329 329 328 328 329 329 329 330 329 329 329 329 328 327 328 328 329 329 329 330 330
335 337 338 338 337 337 337 336 335 337 337 335 336 337 336 336 335 334 333 333 333 332 332 331 332 332 333 334 334 334 334 334 333 333 332 332 331 330 331 331 330 330 330 329 329 329 330 330 330 330 329 328 328 329 330 329 329 329 328 328 328 328 329 328 328 328 328 327 329 329 329 329 330 330 330 329 328 327 327 327 328 328 328 329 330
331 334 337 336 335 336 337 336 335 336 336 335 336 336 335 335 335 334 333 333 332 331 331 331 331 332 332 333 333 333 334 333 332 331 331 330 329 328 329 328 328 328 328 327 327 327 327 327 327 327 328 327 327 328 329 329 329 329 328 328 328 328 328 327 327 328 327 327 327 328 328 329 329 329 328 328 328 327 328 327 327 327 327 328 329
332 332 335 335 333 336 337 336 334 335 334 334 334 333 334 335 334 334 333 333 333 332 332 332 332 331 331 331 331 331 331 330 330 330 330 329 328 328 328 328 327 327 327 326 326 326 326 326 326 326 326 326 326 326 326 327 327 327 327 327 327 327 327 327 327 327 327 326 327 328 327 327 328 327 328 329 328 327 327 328 328 328 327 327 327
334 333 334 334 333 334 335 335 334 334 334 334 333 332 334 335 334 334 334 333 333 333 332 332 332 331 330 330 329 330 330 329 329 329 329 328 328 329 328 327 327 327 326 326 325 326 326 326 326 325 325 324 324 324 324 325 325 326 326 326 326 327 328 328 328 327 327 326 326 327 326 327 329 328 327 328 328 327 326 327 328 328 328 327 327
334 333 333 334 333 333 334 334 334 334 333 333 333 334 335 335 334 334 333 333 332 332 332 331 331 330 329 329 328 329 329 329 328 328 328 328 328 328 327 327 326 326 326 325 325 326 326 326 325 325 324 324 324 324 324 324 325 325 324 323 324 325 326 327 328 328 327 327 326 327 326 327 328 327 327 327 327 328 327 326 326 327 327 328 328
333 333 334 334 333 333 333 333 334 333 332 332 333 334 334 333 333 333 331 330 330 330 330 330 330 329 329 328 328 328 328 328 328 328 328 328 327 327 327 326 326 325 325 324 325 325 325 325 324 324 323 323 323 323 324 323 322 322 321 321 321 322 323 324 325 326 326 327 327 327 327 326 327 327 327 326 327 329 328 327 326 326 327 327 328
331 332 334 333 332 333 333 332 333 333 332 333 333 332 331 331 331 331 330 329 329 329 329 329 329 328 328 328 327 327 327 327 327 327 327 327 326 326 325 324 324 324 323 323 323 323 323 323 323 322 321 320 320 320 320 319 318 317 317 317 318 318 320 321 322 323 323 324 324 325 325 326 326 327 327 326 326 328 328 326 326 326 327 327 328
331 331 331 332 331 331 331 331 332 332 331 332 332 330 330 330 329 329 328 328 328 328 328 328 327 327 327 326 326 325 325 325 325 325 325 324 324 323 322 322 321 320 320 320 320 320 320 320 319 318 318 317 315 315 315 315 314 314 314 314 315 315 316 317 318 319 320 320 321 322 323 325 326 326 326 326 326 327 327 326 326 326 326 327 327
330 331 329 330 330 329 329 329 329 329 328 328 329 328 328 328 327 327 327 327 327 327 326 326 325 325 325 324 323 323 323 323 323 323 322 322 321 320 319 318 317 316 316 315 315 315 315 314 314 314 314 313 313 312 312 312 312 312 312 312 312 313 313 313 314 314 315 316 316 318 319 322 324 325 326 326 325 325 326 326 326 326 326 326 327
329 329 328 329 329 327 326 326 326 326 325 325 325 325 325 324 325 326 327 326 325 325 324 323 323 323 322 321 321 321 320 320 320 319 319 319 317 316 315 314 314 313 313 313 312 312 312 312 312 312 312 312 311 311 311 311 311 311 311 312 312 312 312 312 312 312 312 312 313 313 314 316 318 322 323 324 325 325 325 325 325 326 326 326 327
327 326 327 328 327 325 324 324 323 323 323 323 323 323 323 322 323 325 325 324 323 322 321 321 321 320 320 319 318 318 318 317 316 316 316 315 314 314 313 313 312 312 311 311 311 311 311 311 311 311 311 311 311 311 311 311 311 311 311 311 311 311 312 312 312 312 312 312 313 312 312 313 313 316 318 321 323 324 324 325 325 326 326 326 327
326 326 326 326 325 323 323 322 322 322 321 321 321 321 321 321 322 323 323 321 321 320 319 319 319 318 318 317 316 316 316 314 314 314 313 313 313 312 312 311 311 311 311 310 310 311 310 310 311 310 310 311 311 311 311 311 311 311 311 310 311 310 311 311 311 312 312 312 312 313 313 313 313 313 314 316 318 321 323 324 325 326 326 326 327
325 325 325 324 323 322 322 321 321 321 320 320 320 320 320 320 320 320 320 320 319 318 317 316 316 316 316 315 314 314 313 313 312 312 312 312 311 311 310 311 310 310 310 310 310 310 310 310 310 310 310 310 310 310 309 309 309 309 309 309 309 309 309 310 310 310 311 311 312 312 312 313 313 313 314 314 314 316 320 322 323 325 326 326 327
323 324 324 323 322 321 320 320 320 320 320 319 319 319 318 318 318 318 318 318 317 316 315 314 314 314 314 313 312 312 311 311 311 311 311 311 310 310 310 310 310 310 309 309 309 309 309 309 309 308 308 308 307 307 307 306 306 306 306 306 306 307 307 307 308 308 309 310 310 311 311 312 313 313 313 314 313 313 317 320 322 324 325 326 327
323 323 322 321 321 320 320 319 319 319 319 318 318 318 317 317 317 317 316 315 315 314 313 312 312 312 312 311 311 310 310 310 310 310 310 310 310 310 310 309 309 309 308 308 308 308 307 307 306 306 305 305 304 304 304 303 303 303 303 303 303 304 304 304 305 305 306 307 308 308 310 310 311 313 313 313 313 313 314 317 320 323 324 325 326
322 321 320 321 320 320 319 319 318 318 318 318 318 317 317 316 316 316 315 314 313 312 311 311 310 310 310 310 309 309 309 309 310 310 309 309 309 309 308 308 307 307 306 306 306 305 304 304 303 302 302 301 301 301 300 300 300 300 300 300 300 301 301 302 302 303 303 304 305 306 307 308 309 311 312 313 313 313 312 314 318 320 323 323 324
319 319 320 320 320 318 318 318 318 318 318 318 318 317 316 315 315 315 314 313 312 311 310 310 310 309 309 309 309 309 309 309 308 308 308 308 307 307 306 305 305 304 304 303 302 302 301 300 300 299 299 298 298 298 298 298 297 298 298 298 298 298 299 299 300 301 301 302 303 304 305 306 307 308 309 311 312 312 312 313 315 317 320 321 322
318 319 320 320 319 318 317 317 317 318 318 318 317 316 316 315 314 314 313 312 311 310 310 309 309 309 308 308 308 308 307 307 307 307 306 306 305 304 304 303 302 301 300 300 299 298 298 297 297 297 297 296 296 296 296 296 296 296 296 296 296 297 297 298 298 299 299 300 301 302 303 304 305 306 307 309 310 310 310 311 313 315 317 319 320
319 319 319 319 318 317 317 317 318 318 318 317 316 315 315 314 313 313 312 311 310 309 309 308 308 307 307 307 307 306 306 306 305 305 304 304 303 302 301 300 299 299 298 297 297 296 296 296 296 296 296 296 296 296 296 296 295 295 295 295 295 296 296 296 297 297 298 299 299 300 301 302 303 304 306 307 308 308 309 310 311 312 314 316 317
319 319 319 318 318 317 317 317 318 317 316 316 315 314 314 313 312 312 311 310 309 308 307 307 306 306 306 306 305 305 304 304 303 303 302 301 300 299 298 298 297 297 296 296 296 296 296 296 296 295 295 295 295 295 295 295 295 295 295 295 295 295 295 296 296 297 297 298 298 299 300 300 301 302 304 305 305 306 306 307 309 310 311 313 314
318 318 318 318 317 317 317 317 317 316 315 314 314 313 313 312 312 311 310 309 308 306 305 305 305 305 304 304 303 303 302 302 301 300 299 298 298 297 297 296 296 296 296 296 296 295 295 295 295 295 295 295 295 295 295 295 295 295 295 295 295 295 295 296 296 296 297 297 298 298 299 299 300 301 302 303 303 304 304 305 306 308 309 310 311
317 317 317 317 317 317 316 316 316 315 314 313 313 312 312 311 310 309 308 307 306 304 303 303 303 303 302 302 301 301 300 299 299 298 297 297 296 296 296 296 296 295 295 295 295 295 295 294 295 295 295 295 294 295 295 295 295 295 295 294 294 295 295 296 296 296 297 297 297 298 298 299 299 300 301 302 302 303 303 304 304 305 306 307 309
316 316 316 316 316 316 316 315 315 314 313 313 312 312 311 310 309 308 307 306 304 303 302 302 302 301 301 300 299 299 298 298 297 297 296 296 296 296 296 296 295 295 295 294 294 294 294 294 294 294 294 294 294 294 294 295 295 295 294 294 294 294 295 295 296 296 296 297 297 298 298 298 299 299 300 301 301 302 302 302 303 303 304 305 306
316 315 316 315 315 315 315 314 314 313 313 312 311 311 310 309 307 306 305 304 303 302 301 300 300 300 299 298 298 297 297 297 296 296 296 296 296 296 295 295 295 294 294 294 294 294 294 294 294 294 294 294 294 294 294 295 294 294 294 294 294 294 295 295 295 296 296 297 297 297 298 298 298 299 299 299 300 300 301 301 302 302 302 303 303
315 315 315 315 314 314 313 313 313 312 312 311 310 309 308 307 306 305 304 303 302 301 300 299 299 298 297 297 297 297 296 296 296 296 296 296 296 295 295 294 294 294 294 294 294 294 294 294 294 294 294 294 294 294 294 294 294 294 294 294 294 294 295 295 296 296 296 297 297 297 297 297 298 298 298 298 298 298 299 300 301 301 301 302 302
314 314 314 314 314 313 312 312 312 311 311 310 309 307 306 305 305 304 303 301 300 300 299 298 298 297 297 297 297 296 296 296 296 296 296 295 295 294 294 294 294 294 294 294 294 294 294 294 294 294 294 294 294 294 294 294 294 294 294 294 294 295 295 295 296 296 296 297 297 297 297 297 297 297 298 298 298 298 298 299 299 300 300 300 301
313 313 314 313 313 312 312 311 311 311 310 308 307 306 305 304 304 303 301 299 299 298 298 297 297 297 297 296 296 296 296 296 296 295 295 295 294 294 294 294 294 294 294 294 294 294 293 293 293 293 293 294 294 294 294 294 294 294 294 294 294 295 295 296 296 296 296 296 297 297 297 297 297 297 297 297 297 298 298 298 298 299 299 299 300
313 313 313 312 312 311 311 311 310 309 308 307 306 305 304 304 303 302 299 298 297 297 297 297 297 296 296 296 296 296 296 295 295 295 294 294 294 294 294 294 294 294 293 293 293 293 293 293 293 293 293 293 293 293 294 294 294 294 294 294 294 294 295 295 296 296 296 296 297 297 297 297 297 297 297 297 297 297 298 298 298 299 299 300 300
312 312 312 312 312 311 311 310 309 308 307 306 305 304 304 304 303 301 298 297 297 297 297 297 297 296 296 296 296 296 295 295 294 294 294 294 294 294 294 294 293 293 293 293 293 293 293 293 293 293 293 293 293 293 294 294 294 294 294 294 294 295 295 296 296 296 296 296 296 297 297 297 297 297 297 297 297 297 298 298 298 298 299 300 300
313 312 312 312 311 311 310 310 308 307 306 305 304 303 303 303 303 301 298 297 297 297 297 297 297 296 296 296 296 295 295 294 294 294 294 293 294 294 294 294 293 293 293 293 293 293 293 293 293 293 293 293 293 293 293 294 294 294 294 294 294 295 295 296 296 296 296 296 296 296 297 297 297 297 297 297 297 297 298 298 298 298 299 299 300
312 312 311 311 311 310 310 309 307 306 305 304 303 303 303 303 302 300 298 297 297 297 297 297 296 296 296 296 296 295 294 294 294 294 294 294 294 294 294 294 293 293 293 293 293 293 293 293 293 293 293 293 293 293 293 294 294 294 294 294 295 295 295 296 296 296 296 296 296 296 296 296 296 296 296 296 297 297 297 298 298 298 299 299 300
311 311 311 311 311 310 309 307 306 305 304 304 302 302 302 303 302 299 298 297 297 297 297 296 296 296 296 295 295 294 294 294 294 294 294 294 294 294 294 294 293 293 293 293 293 293 293 293 293 292 293 292 292 293 293 293 293 294 294 294 295 295 296 296 296 296 296 296 296 295 295 295 295 296 296 296 296 297 297 297 298 298 299 299 300
312 311 311 311 310 310 308 306 305 304 304 303 302 301 302 302 300 298 297 297 297 297 297 296 296 296 295 294 294 294 294 294 294 294 294 294 294 294 294 294 293 293 293 293 293 293 293 292 292 292 292 292 292 292 293 293 293 294 294 294 295 295 296 296 296 296 296 296 295 295 294 294 294 295 295 296 296 296 297 297 298 298 298 299 299
312 312 311 311 310 309 308 306 305 304 304 303 301 300 300 300 298 297 297 297 297 297 296 296 295 295 294 294 294 294 294 294 294 294 294 294 294 294 294 294 293 293 293 292 292 292 292 292 292 292 292 292 292 292 292 293 293 293 294 294 295 295 295 295 296 296 295 295 295 294 294 294 294 294 295 296 296 296 297 297 297 298 298 298 299
311 311 311 311 310 309 307 306 305 304 303 303 300 299 299 298 297 297 297 297 296 296 296 295 295 294 294 294 294 293 293 293 293 294 294 294 294 294 294 293 293 293 293 292 292 292 292 292 292 292 292 292 292 291 292 292 292 293 294 294 294 294 295 295 295 295 295 294 294 294 294 293 294 294 295 295 296 296 297 297 297 297 297 297 298
311 311 311 310 309 308 306 305 305 304 303 302 300 298 298 297 297 297 297 297 296 296 296 296 295 295 294 294 294 294 294 293 293 293 294 294 294 294 294 293 293 293 293 292 292 292 292 292 292 292 292 292 291 291 291 292 292 293 293 293 293 294 294 294 294 294 294 294 294 294 293 293 294 294 294 295 295 296 297 297 297 297 297 297 297
311 311 311 310 309 307 306 305 304 304 303 301 299 298 297 297 297 297 297 297 297 297 296 296 296 295 295 295 294 294 294 294 293 293 294 294 294 294 294 293 293 293 293 292 292 292 292 292 292 292 292 291 291 291 291 292 292 293 293 293 293 293 293 293 293 293 293 293 293 293 293 293 294 294 294 294 295 296 296 297 297 297 296 297 297
311 311 310 310 308 307 306 305 304 304 303 301 298 297 297 297 297 297 297 297 297 297 297 296 296 296 295 295 295 295 294 294 294 294 294 294 294 294 294 294 294 293 293 293 292 292 292 292 292 292 292 291 291 291 291 292 292 292 292 293 293 293 293 293 293 293 293 293 293 293 293 293 293 294 294 294 295 295 296 296 297 297 297 297 297
311 310 310 309 308 307 306 305 304 303 302 300 298 298 298 298 297 297 297 297 297 297 297 297 296 296 296 296 295 295 295 294 294 294 294 294 294 294 294 294 294 293 293 293 292 292 292 292 292 292 292 291 291 291 291 291 291 292 292 292 292 292 292 292 292 292 292 292 292 292 292 293 293 293 294 294 295 295 296 296 297 297 297 298 298
310 309 309 309 308 307 305 304 303 303 302 300 299 298 298 298 298 298 297 297 297 297 297 297 297 296 296 296 296 295 295 295 294 294 294 294 294 294 294 294 294 294 293 293 292 292 292 292 292 292 292 292 291 291 291 291 291 291 291 292 292 292 292 292 292 292 292 292 291 292 292 292 293 293 294 294 294 295 296 296 297 297 297 298 298
310 309 308 308 307 306 305 304 303 302 302 300 299 299 298 298 298 298 298 298 297 297 297 297 297 297 296 296 296 296 295 295 295 295 295 294 294 294 294 295 294 294 293 293 292 292 292 292 292 292 292 292 292 292 291 291 291 291 291 291 292 292 292 292 292 292 292 292 291 291 292 292 293 293 293 294 294 295 295 296 296 297 297 297 297
309 308 308 307 307 306 305 304 303 302 301 301 299 299 299 299 299 298 298 298 298 297 297 297 297 297 297 296 296 296 295 295 295 295 295 295 295 295 295 295 295 294 293 293 293 292 292 292 292 292 292 292 292 292 292 292 292 292 292 292 292 292 292 292 292 292 292 292 292 291 292 292 293 293 293 294 294 294 295 296 296 296 297 297 297
309 308 307 307 307 306 304 303 303 302 301 301 300 299 299 299 299 299 299 298 298 298 298 297 297 297 297 297 296 296 296 296 295 296 295 295 295 295 295 295 295 294 294 293 293 292 292 292 292 292 292 292 292 292 292 292 292 292 292 292 292 292 292 292 292 292 292 292 292 292 291 292 292 293 293 293 293 294 295 296 296 296 296 296 296
308 307 307 306 306 305 304 303 302 302 301 301 300 299 299 298 299 299 299 299 298 298 298 298 297 297 297 297 296 296 296 296 296 296 295 295 295 295 295 295 295 294 294 294 293 293 292 292 292 292 292 292 292 292 292 292 292 292 292 292 292 292 292 292 292 292 292 292 292 292 291 291 291 292 293 293 293 294 295 295 296 296 296 296 296
308 307 307 306 305 305 304 303 302 302 301 300 299 299 299 298 298 298 299 299 299 298 298 298 298 297 297 297 296 296 296 296 296 296 295 295 295 295 295 295 294 294 294 294 294 293 292 292 292 292 292 292 292 292 292 292 292 292 292 292 292 292 292 292 292 292 292 292 292 292 292 291 291 291 292 293 293 293 294 295 295 295 295 295 295
307 306 306 305 305 304 304 303 302 302 301 300 300 299 299 299 298 298 298 299 299 299 298 298 298 297 297 297 297 296 296 296 296 296 295 295 295 295 295 295 294 294 294 294 294 294 293 292 292 292 292 292 291 292 292 293 293 293 293 292 292 292 292 292 292 292 292 292 292 292 292 291 291 291 291 292 292 293 293 294 294 295 295 295 295
307 306 305 305 304 304 303 303 302 301 301 300 300 300 299 299 299 298 298 298 298 298 298 298 298 298 297 297 297 297 296 295 296 296 295 295 295 295 295 295 295 294 294 294 294 294 294 293 292 292 292 292 291 291 292 292 292 293 293 293 292 292 293 292 292 293 292 292 292 292 292 292 291 291 291 292 292 292 293 293 294 294 294 295 295
306 305 305 304 304 304 303 302 302 301 300 300 300 300 299 299 299 298 298 298 298 298 298 298 298 297 297 297 297 297 296 296 295 295 295 295 295 295 295 295 295 294 294 294 294 294 294 293 292 292 292 292 291 291 291 292 292 292 293 293 293 292 293 292 293 293 292 292 292 292 292 292 292 291 291 291 292 292 292 293 293 294 294 294 294
Wind_Speed
18 18 16 17 16 15 15 15 16 17 16 15 16 15 13 12 11 10 9 9 7 7 6 5 4 3 2 2 2 2 2 2 1 2 4 5 5 6 7 7 8 8 8 8 8 8 9 9 9 8 9 9 9 10 10 11 12 13 14 15 15 16 16 17 17 17 18 19 20 20 21 21 20 20 20 20 19 19 19 19 20 22 24 26 26
17 16 15 17 18 17 17 17 17 18 16 15 14 14 13 12 11 11 11 10 9 7 6 5 4 3 2 2 1 1 1 1 1 4 5 5 5 6 7 8 9 10 10 10 10 11 11 12 12 12 12 12 12 12 13 13 13 14 15 15 15 14 13 14 15 15 15 16 18 20 20 18 17 18 18 16 16 16 16 16 16 18 20 22 24
17 14 14 16 17 15 15 16 16 16 15 13 12 13 13 13 13 12 12 10 8 6 4 3 3 3 3 4 3 2 2 3 3 4 4 4 4 5 6 6 7 8 9 9 9 10 11 12 12 12 13 13 13 13 13 12 13 14 15 15 14 13 13 13 13 13 15 15 16 17 17 17 17 15 14 14 17 18 16 16 16 16 17 17 21
16 17 17 15 14 13 13 13 12 14 14 12 13 14 14 14 13 11 10 8 6 5 4 4 4 3 4 5 5 4 4 5 4 3 4 5 7 7 7 7 8 8 9 10 10 10 11 12 12 13 13 14 14 13 12 12 12 13 13 13 14 13 14 14 13 13 15 14 13 16 16 15 13 12 15 18 19 18 17 17 17 18 17 17 18
13 17 19 16 14 15 19 17 14 15 15 13 13 13 12 11 11 9 7 5 4 5 5 6 5 4 3 3 3 3 3 3 2 4 6 7 9 10 10 12 12 12 13 14 14 14 14 14 14 15 14 14 13 11 10 10 10 10 11 12 13 13 15 16 15 13 15 14 13 15 14 11 13 16 20 21 18 19 20 20 20 19 19 18 18
13 14 19 19 15 16 20 17 15 14 13 13 12 9 8 9 10 8 4 3 3 4 6 7 7 5 2 1 2 1 2 2 4 5 7 8 10 11 12 14 14 14 14 15 17 17 16 15 16 17 16 16 17 15 12 11 11 11 11 11 11 13 15 16 16 15 15 15 13 13 14 14 18 21 20 20 21 22 21 20 21 20 19 20 20
17 12 13 16 14 14 14 12 13 15 14 14 13 9 8 9 8 6 4 3 2 4 6 7 8 7 5 2 1 2 3 4 5 6 8 9 9 10 12 14 14 14 15 16 17 17 16 15 16 18 19 18 19 18 16 16 17 16 14 12 11 11 12 14 16 17 17 17 14 15 17 17 19 20 19 21 24 24 23 22 22 21 20 21 22
21 18 17 18 14 15 17 15 13 13 12 12 13 12 11 10 8 4 2 1 3 5 8 9 8 7 7 6 4 2 4 5 7 8 9 9 10 11 14 15 16 16 16 16 16 16 16 17 18 20 20 19 17 16 16 18 19 18 17 16 14 11 11 12 13 14 16 17 16 16 18 17 18 20 20 20 21 26 28 26 24 23 22 23 24
24 24 23 19 13 13 16 14 12 13 13 11 11 12 10 8 6 2 1 3 5 6 9 11 8 6 8 9 7 5 5 6 8 9 9 11 13 14 16 17 17 17 17 16 15 15 16 18 19 20 19 18 16 15 16 18 19 19 19 18 15 12 12 14 14 14 14 15 15 15 17 18 19 19 19 19 20 25 28 28 26 26 26 25 24
26 25 23 20 18 17 14 11 11 12 13 11 8 8 8 5 2 1 3 5 8 9 11 10 8 7 8 10 9 7 7 8 9 10 11 13 14 15 15 15 14 14 14 14 14 15 16 17 18 18 18 17 16 16 16 17 18 19 19 18 18 16 16 16 17 18 18 18 17 16 16 17 19 20 20 21 21 22 26 29 28 26 28 29 26
27 24 22 21 21 19 17 16 15 13 12 11 8 5 4 2 0 3 5 7 9 10 10 8 7 7 8 9 7 6 6 7 8 9 10 11 12 12 12 12 12 12 12 12 12 12 13 14 15 16 17 17 18 18 18 18 19 19 20 20 20 19 19 19 19 20 21 21 20 19 18 16 17 19 21 22 22 22 25 30 29 26 27 29 27
28 25 24 22 19 17 16 16 14 12 10 8 6 4 3 2 1 4 6 7 8 8 7 6 6 7 7 7 6 5 5 6 7 8 8 9 9 10 10 11 11 11 11 11 11 11 12 13 14 15 16 17 18 20 20 20 20 20 20 20 20 20 20 21 21 21 22 22 23 22 21 19 18 18 20 22 23 23 25 29 30 26 27 28 26
28 26 24 22 19 17 15 14 12 10 9 7 6 4 3 3 2 5 6 6 5 5 5 6 6 6 6 6 6 6 6 7 8 8 8 8 9 9 10 10 10 11 11 11 12 13 13 14 15 16 17 19 20 20 21 21 21 21 21 20 20 20 20 20 20 21 21 22 23 23 23 22 21 20 20 22 23 23 25 28 29 27 28 29 26
27 25 23 21 19 17 14 13 12 10 9 7 6 5 4 4 3 4 5 4 3 4 5 6 6 6 6 6 6 6 7 7 7 7 8 9 9 10 10 10 11 12 13 13 14 15 16 16 17 17 18 18 19 20 20 21 21 22 22 22 21 20 20 20 20 20 20 21 22 23 24 24 24 22 21 21 21 22 23 26 28 28 29 29 26
26 24 22 20 18 16 14 13 12 11 9 7 5 4 3 4 4 5 4 3 4 5 5 5 5 5 6 6 6 6 6 6 7 8 9 10 10 11 11 12 13 13 14 14 15 15 15 16 16 17 17 18 19 19 20 20 21 21 21 21 21 21 20 20 19 19 19 20 20 21 22 23 24 24 23 23 22 21 21 23 25 27 29 30 27
23 22 21 19 18 16 14 13 12 11 8 6 4 3 3 4 4 4 4 4 5 5 5 5 5 5 6 6 6 6 6 7 8 9 10 11 11 12 12 13 13 14 14 14 15 15 15 16 16 17 18 18 19 20 20 20 20 21 20 20 20 20 20 20 20 20 19 19 19 20 21 21 22 23 23 24 24 21 21 22 22 24 27 30 30
23 23 21 19 18 16 14 14 12 9 6 4 3 2 2 3 4 4 4 4 4 5 5 5 6 6 6 6 7 7 7 9 10 11 12 12 12 12 13 13 13 14 14 14 15 15 16 16 17 18 19 19 20 20 20 20 20 21 21 21 21 20 21 21 21 21 21 20 20 20 20 21 21 22 23 24 24 22 22 22 22 22 23 27 30
25 23 22 20 17 16 15 14 11 8 6 4 3 3 2 3 5 5 4 4 4 4 5 5 6 6 6 7 7 7 9 10 12 12 12 12 12 12 12 13 13 14 14 14 15 15 16 17 18 19 20 20 20 21 21 21 21 22 22 22 22 22 23 23 23 23 23 23 23 22 22 21 21 22 23 23 22 21 22 23 23 23 22 24 27
27 26 24 20 18 17 16 14 11 9 6 4 3 2 2 4 4 5 5 5 5 5 5 5 5 6 7 7 8 9 10 12 13 12 11 11 11 12 13 13 14 14 14 15 15 16 17 18 19 19 20 20 21 21 22 22 23 23 23 24 24 25 25 26 26 26 27 27 26 26 26 25 24 24 24 24 22 20 19 22 23 23 23 24 24
28 28 24 20 19 17 16 14 11 8 5 2 1 1 1 2 3 4 5 5 4 4 5 5 5 7 7 8 9 10 12 13 12 12 11 12 13 13 14 15 15 15 15 16 16 17 18 19 19 20 21 21 22 22 23 24 24 25 25 26 26 27 27 27 28 28 29 29 28 29 29 29 28 27 26 26 24 20 18 19 23 24 23 24 24
27 27 24 21 20 18 16 13 10 7 4 3 4 3 2 1 3 4 4 4 3 4 4 4 5 6 7 9 10 12 13 13 12 12 13 14 14 15 15 15 15 16 16 17 17 18 19 20 20 21 22 23 24 24 25 25 26 27 27 28 28 28 29 29 29 29 29 29 29 30 30 30 30 29 28 28 26 23 22 21 22 25 26 26 26
28 27 24 22 21 19 16 12 9 6 5 6 7 6 3 0 2 2 2 2 2 3 4 4 6 7 9 11 12 13 13 13 13 13 14 14 15 15 15 15 15 16 17 17 18 19 20 20 21 22 23 24 25 26 26 27 27 28 29 29 30 30 30 31 31 31 30 30 30 30 30 30 30 30 29 29 28 27 26 26 24 24 27 28 29
29 27 24 23 20 18 15 11 8 7 8 9 9 7 4 1 1 1 1 1 2 4 5 7 8 10 11 13 13 14 13 13 13 14 14 15 15 15 15 16 16 17 18 18 19 20 20 21 22 23 24 24 26 26 27 28 28 29 29 30 30 31 31 31 31 31 31 31 31 31 31 31 30 30 30 29 29 30 29 29 28 26 26 27 30
29 27 25 23 20 17 15 13 11 11 12 12 10 7 4 3 3 2 0 2 4 6 8 9 10 12 14 14 15 15 14 14 14 14 15 15 16 16 16 17 17 17 18 19 20 20 21 22 23 24 25 25 26 26 26 27 27 28 28 29 29 30 30 31 31 31 32 32 32 32 31 31 31 31 31 30 30 31 31 32 31 30 29 29 29
29 28 26 24 22 20 18 15 14 15 16 14 11 8 6 5 3 1 2 4 7 8 9 10 12 14 15 16 16 16 15 15 15 16 16 16 17 17 17 17 18 18 19 20 21 22 22 23 24 24 25 25 25 26 26 27 27 28 28 28 29 29 30 30 30 30 31 31 32 32 32 32 32 31 31 31 31 31 32 32 33 33 33 32 32
31 30 28 26 25 22 19 17 18 19 17 14 11 8 6 5 3 3 5 7 9 9 10 12 14 16 17 17 17 16 16 16 17 17 17 17 17 17 17 18 19 19 20 21 22 22 23 23 24 24 25 25 26 27 28 28 29 29 29 29 29 29 29 30 30 31 31 32 32 32 31 31 31 30 30 31 32 32 33 33 34 35 35 35 35
33 32 30 28 26 22 20 20 20 19 16 13 10 8 6 5 6 7 8 9 9 9 11 13 15 17 18 17 17 17 17 17 18 18 18 18 18 18 18 19 19 20 21 21 22 23 23 24 25 25 26 27 28 28 29 29 30 30 30 29 29 30 30 30 31 31 32 32 32 32 32 32 31 29 29 29 30 31 33 34 34 34 35 37 38
34 33 31 29 26 23 22 23 21 18 15 12 10 8 7 8 10 10 10 9 9 10 12 15 17 17 18 18 18 18 18 18 18 18 18 18 18 18 19 19 19 20 21 22 23 23 24 24 25 26 26 27 27 28 30 30 30 30 29 29 30 30 31 31 32 32 33 33 33 33 33 32 31 30 30 30 29 29 32 34 34 35 35 36 38
35 34 31 29 26 26 26 24 21 18 15 12 11 10 11 12 12 12 10 10 10 11 14 16 17 18 18 18 18 18 18 18 18 18 18 18 18 18 19 19 20 21 21 22 22 23 23 24 25 26 26 27 28 29 29 30 30 30 29 29 29 30 31 32 33 33 34 35 35 35 35 34 33 33 33 33 32 31 33 34 35 36 37 37 37
35 34 31 29 28 28 27 24 20 17 15 13 13 14 14 14 13 12 11 11 12 13 15 17 18 18 18 18 18 18 18 17 17 17 17 17 17 18 18 19 20 21 21 22 22 23 24 25 26 27 27 28 29 28 28 27 28 28 28 28 28 28 30 31 32 34 35 36 36 37 37 37 37 37 36 36 36 36 35 34 34 35 37 40 40
35 34 32 30 30 29 26 23 20 17 16 15 16 16 16 15 14 13 13 13 14 15 17 18 18 19 18 17 17 17 17 17 16 16 16 17 17 18 18 19 20 21 22 23 23 24 26 27 27 28 28 29 28 27 26 26 26 26 26 26 26 27 28 30 32 34 35 36 37 38 39 39 39 38 38 38 40 41 40 39 37 34 34 36 40
35 35 34 32 32 29 26 23 20 19 18 17 18 18 17 16 14 14 14 15 15 17 18 19 19 18 17 17 16 16 16 16 15 15 16 16 17 17 19 20 21 22 23 23 24 26 27 27 28 28 28 29 28 27 26 26 26 26 25 25 25 26 27 29 31 33 35 36 37 38 39 39 39 39 39 39 42 44 45 44 42 39 36 35 37
37 37 36 34 32 29 26 23 21 21 20 18 18 19 18 17 15 15 15 16 17 19 19 19 18 18 17 16 15 15 15 15 15 15 15 16 17 18 20 21 21 22 23 24 25 26 27 28 28 29 29 29 28 27 27 26 26 26 25 24 24 25 27 28 30 33 35 36 37 38 39 39 40 40 40 40 43 45 46 47 46 45 43 40 39
38 39 38 35 32 28 26 24 23 22 21 20 19 19 19 18 16 15 16 16 18 19 20 20 19 17 16 15 14 14 14 14 15 15 15 16 18 19 20 20 21 22 23 24 26 26 27 28 29 30 30 30 29 28 28 27 26 26 25 25 24 25 27 28 30 33 35 36 37 38 38 38 39 39 39 40 43 45 46 47 47 46 46 44 43
40 40 39 35 32 30 27 26 25 24 22 21 20 20 20 19 17 16 17 18 19 21 21 20 18 17 16 14 14 14 14 15 15 15 16 17 18 19 20 20 21 22 23 25 25 26 27 28 29 30 30 30 30 29 28 27 27 26 26 26 25 25 27 29 30 32 34 35 36 36 35 35 37 38 37 38 40 43 44 45 45 45 45 45 44
42 41 39 35 33 30 29 28 27 25 23 21 19 20 21 20 18 19 20 20 20 21 21 19 18 17 15 14 14 14 15 15 15 15 16 17 18 19 20 20 21 22 23 24 25 26 27 28 29 31 31 31 30 29 29 28 27 27 27 27 27 27 29 30 31 32 34 35 36 36 33 34 36 37 37 37 39 41 43 43 43 44 44 45 45
43 41 38 35 32 30 29 29 28 26 23 20 19 20 22 22 21 21 21 21 21 21 21 20 18 17 16 15 15 15 16 16 15 15 15 16 17 18 19 19 20 21 22 24 25 26 27 28 30 31 32 31 31 30 30 29 28 29 28 26 25 26 29 30 32 33 32 31 33 36 35 35 37 37 37 37 38 40 42 43 43 44 44 46 47
43 41 38 35 32 31 30 30 28 25 22 20 20 22 24 24 24 23 24 23 23 23 22 21 20 19 18 17 16 16 16 16 16 15 15 16 16 17 18 18 19 20 21 23 24 25 26 28 30 31 32 32 31 31 30 29 29 30 29 24 21 22 24 26 28 28 25 24 29 35 37 37 37 37 38 37 38 39 41 43 43 43 44 45 46
43 41 38 36 33 32 31 30 28 26 23 21 21 24 26 27 26 26 25 25 24 23 22 22 21 20 19 18 17 17 17 16 16 15 15 15 15 16 16 17 18 19 20 21 23 24 26 28 29 31 32 32 32 31 30 29 28 30 31 27 23 24 24 24 26 24 20 21 25 29 35 38 37 37 38 38 37 38 39 41 43 43 43 44 45
43 40 37 35 34 33 33 32 29 27 24 22 23 26 28 28 27 27 25 25 24 23 22 21 21 20 19 18 18 17 17 16 15 15 15 14 14 14 15 15 16 18 19 20 22 23 25 27 28 30 32 32 32 31 30 29 28 29 31 30 29 31 29 24 25 23 20 22 23 25 32 38 38 37 39 38 38 38 38 40 42 42 42 42 43
41 39 37 36 35 34 33 32 30 27 25 24 25 29 30 28 27 27 25 24 23 22 21 20 20 19 18 18 17 16 16 15 15 14 14 14 13 13 13 14 15 17 17 18 20 22 24 26 27 29 31 32 32 31 30 29 27 27 30 31 32 35 32 28 28 27 25 26 26 28 35 40 39 39 40 40 39 39 38 39 40 40 39 39 40
42 40 38 37 36 35 33 32 30 28 26 26 27 29 29 27 27 26 24 23 22 20 20 19 18 18 17 16 16 15 15 15 14 14 13 13 12 11 12 12 14 15 16 18 19 21 23 25 26 28 30 31 32 31 30 29 27 26 27 29 31 32 32 31 32 32 31 31 32 33 37 40 39 40 41 41 41 40 40 40 40 40 38 37 38
43 40 38 36 36 36 34 33 32 29 27 27 28 29 28 27 26 25 24 22 21 19 18 17 17 16 15 15 14 14 14 14 14 13 12 11 11 11 11 11 13 14 16 17 19 21 23 25 26 27 29 31 32 32 30 30 30 28 27 27 28 30 31 31 32 32 33 34 35 36 38 39 40 41 43 43 43 42 42 42 42 42 40 37 38
42 40 39 37 36 37 36 34 32 30 28 27 27 28 28 26 25 24 23 21 20 18 17 16 16 15 14 14 13 12 12 13 13 12 11 10 10 10 10 10 12 14 16 18 20 21 23 24 26 27 28 29 30 31 31 30 30 30 30 28 28 29 30 30 30 31 32 33 35 36 37 39 40 42 44 45 45 44 44 44 45 44 42 40 40
41 40 39 37 36 37 37 35 33 31 29 27 27 27 27 27 26 24 22 21 19 18 16 15 15 14 13 12 12 11 11 11 11 10 10 9 9 9 9 9 11 13 15 17 19 21 22 24 25 26 26 27 29 30 31 31 31 31 31 30 30 30 30 30 30 30 30 32 33 35 37 39 40 43 45 48 48 47 45 46 47 47 45 45 44
42 41 39 37 36 36 37 36 34 32 30 28 27 26 25 26 25 23 21 20 19 17 16 15 14 13 12 11 11 10 10 9 9 8 8 8 7 8 8 8 10 12 14 16 18 20 22 23 24 25 25 26 27 28 29 30 31 32 32 31 31 30 30 30 30 29 30 31 33 35 38 40 42 43 46 49 50 49 47 47 49 49 49 49 48
42 41 39 38 37 38 38 37 36 34 32 30 28 26 24 25 24 22 21 20 18 17 16 15 14 13 12 11 10 9 9 8 7 7 6 6 6 7 7 8 9 10 12 14 16 19 21 22 23 24 24 25 25 26 27 28 30 31 31 31 31 30 30 30 31 30 30 32 34 36 39 41 43 44 45 48 50 51 50 50 50 51 51 51 50
42 41 40 39 39 39 39 37 36 36 33 31 29 27 25 24 22 21 21 20 19 17 15 14 13 12 11 10 9 8 7 7 6 5 5 5 5 6 7 8 8 9 11 13 15 17 20 21 22 23 24 24 24 24 25 26 27 28 29 29 29 29 29 30 30 29 31 32 35 38 40 41 43 45 46 48 50 52 52 51 51 51 51 51 51
43 41 39 39 39 39 39 36 35 35 33 32 31 28 26 24 22 21 21 20 19 18 15 13 12 12 11 11 9 7 6 6 5 5 5 5 5 5 7 7 8 9 10 11 13 15 17 19 20 22 23 24 23 23 23 23 23 24 25 26 27 27 28 29 29 29 30 33 35 38 41 42 44 45 46 47 49 51 51 51 51 51 50 51 52
43 41 39 38 38 38 37 36 34 34 33 32 31 29 26 24 22 22 21 20 19 19 16 14 13 12 12 12 10 8 6 6 5 5 4 4 5 6 6 7 8 9 10 10 11 13 15 17 19 20 21 22 22 22 22 21 21 22 23 24 25 25 27 29 29 29 31 33 35 38 40 41 42 44 44 45 46 48 49 50 51 51 50 50 51
43 42 40 38 37 37 36 35 34 33 32 31 30 28 26 25 23 22 21 19 19 18 17 15 14 13 13 12 11 9 7 5 5 6 6 5 4 5 5 7 8 8 9 10 11 12 14 16 17 18 20 20 21 21 21 21 21 21 21 22 24 25 26 28 29 30 32 33 35 37 38 39 40 41 42 42 42 44 46 47 49 50 50 50 50
Wind_Direction
141 143 148 157 158 152 151 149 147 149 151 159 163 159 157 156 158 156 151 148 148 147 136 136 144 142 159 146 139 163 155 200 269 23 22 10 4 356 357 1 5 5 1 359 357 357 357 356 355 351 348 344 337 333 329 326 321 316 312 309 307 305 302 302 303 304 305 305 304 301 297 292 285 284 285 284 284 285 286 285 281 278 274 273 272
146 143 137 143 149 148 150 150 146 147 154 164 162 151 149 148 147 143 133 129 128 127 126 125 120 114 114 89 95 163 165 228 18 58 51 32 16 7 9 15 17 14 9 8 5 3 2 1 358 357 355 351 346 341 336 331 326 322 318 316 315 314 311 312 315 318 316 314 311 309 309 306 298 296 295 293 293 293 291 290 288 284 279 276 273
144 147 140 143 150 148 147 156 155 150 150 153 148 140 138 133 130 128 119 117 116 111 104 87 81 73 71 61 40 27 9 360 27 61 51 24 5 360 1 7 15 16 11 5 360 358 356 353 351 348 345 342 338 332 327 325 323 321 319 319 320 321 318 318 321 320 314 317 317 312 313 314 312 315 314 308 309 306 298 294 293 290 285 281 276
134 140 145 147 149 151 155 158 151 146 145 138 135 134 132 125 120 117 109 107 100 82 56 37 31 27 51 61 41 35 61 70 73 62 25 4 354 347 341 343 351 353 350 345 340 339 339 338 334 331 328 329 331 329 324 323 322 321 320 319 321 324 321 319 322 318 312 318 321 314 313 313 313 318 315 312 313 312 305 302 300 296 292 286 280
140 140 147 150 150 154 153 153 146 141 138 131 132 134 132 128 123 118 105 97 88 66 47 32 15 2 36 73 68 76 108 95 8 350 359 358 355 352 347 345 344 344 343 340 338 337 336 335 330 328 328 328 331 332 328 329 329 327 325 323 324 325 320 317 318 315 310 313 317 314 312 308 306 310 312 311 312 312 310 308 305 302 299 292 283
159 142 139 140 146 147 138 140 150 150 141 139 142 138 139 138 131 129 122 104 84 47 30 18 3 352 344 189 157 186 237 282 329 355 2 356 354 351 343 339 339 340 338 336 336 336 337 337 333 330 330 327 327 328 328 328 329 330 329 327 330 328 320 316 314 312 309 310 313 309 304 302 304 308 310 306 306 307 306 305 304 304 303 298 289
169 162 148 141 146 155 143 136 150 151 147 149 149 147 156 155 144 145 143 113 67 30 15 2 357 357 349 339 25 9 339 345 356 354 342 339 340 335 328 327 328 327 326 328 331 331 330 329 325 323 324 323 323 326 326 323 323 326 325 323 326 323 315 313 314 316 312 308 307 302 301 303 304 306 305 303 305 305 304 306 305 304 303 302 298
167 163 154 143 142 154 152 148 149 147 145 151 154 155 160 156 147 148 137 62 27 19 1 348 350 353 345 342 346 340 334 333 330 327 324 322 319 316 315 316 317 317 319 324 326 324 321 319 316 317 320 320 318 319 319 318 318 317 313 311 316 317 309 306 307 310 309 308 307 303 302 302 298 300 301 300 298 297 303 309 308 307 304 300 301
159 155 149 144 147 150 144 147 158 160 160 164 161 153 149 141 131 126 24 24 23 8 343 332 333 336 330 326 314 289 289 303 309 312 310 307 307 310 314 316 317 318 319 319 318 316 314 313 314 317 321 321 319 314 310 311 311 310 310 311 314 311 302 298 296 296 296 300 304 302 302 303 301 301 300 300 298 295 300 306 308 309 306 301 300
155 155 155 155 162 163 162 171 171 163 159 165 169 148 133 126 115 9 353 2 355 337 320 314 316 320 318 317 311 292 282 287 291 294 300 306 313 320 324 327 329 329 328 326 323 319 315 314 316 320 324 327 327 322 316 315 317 319 322 322 320 314 305 300 295 292 291 293 297 297 299 302 303 303 300 302 303 299 299 301 304 307 304 301 301
153 153 153 154 158 158 165 172 170 165 157 161 172 152 128 133 61 354 356 345 328 314 305 304 312 317 319 322 324 315 299 296 297 302 311 320 329 337 342 344 346 346 344 341 337 332 326 325 326 329 331 332 333 333 334 334 335 335 334 333 330 326 320 314 306 300 297 295 296 296 296 293 294 298 300 301 300 299 300 300 303 305 301 299 300
152 153 151 152 155 152 151 153 151 151 147 148 154 143 132 131 29 345 341 329 314 307 306 315 324 326 329 332 335 336 331 326 324 326 333 340 348 354 356 357 358 359 357 355 353 349 345 342 340 339 338 338 339 341 342 343 343 343 342 341 339 336 332 327 322 317 312 307 303 301 298 291 285 285 291 294 293 295 298 298 301 304 301 300 301
150 152 151 151 154 152 147 142 136 135 135 128 122 114 103 93 42 330 320 315 310 312 319 327 330 329 332 333 335 342 343 341 341 346 354 1 7 8 7 7 7 7 4 2 0 358 355 352 349 346 345 345 345 345 345 346 347 348 347 347 346 344 341 337 334 330 326 320 314 310 306 299 292 285 284 289 292 294 296 297 300 302 299 300 302
149 149 150 150 152 149 143 136 130 127 123 111 99 87 75 70 32 332 315 311 319 328 329 329 327 329 333 335 342 350 350 350 357 9 16 19 19 17 14 13 11 9 7 5 4 2 0 358 355 354 352 351 350 350 350 350 350 350 349 349 348 347 345 342 339 336 333 328 322 318 314 309 304 298 293 292 292 292 294 297 301 301 299 299 299
152 151 150 150 150 147 141 136 133 129 122 110 96 74 43 18 360 339 327 329 335 334 331 331 330 334 343 351 360 2 2 9 22 28 29 28 26 22 19 17 16 15 13 12 10 7 5 3 0 358 356 355 354 353 352 352 351 351 350 349 348 348 346 343 341 338 335 332 329 324 320 316 312 306 300 294 289 288 288 292 299 303 300 299 299
155 155 153 151 149 146 144 142 137 129 118 105 87 61 17 355 345 333 331 331 329 331 336 341 343 348 357 9 19 22 23 30 36 38 35 33 29 25 23 22 21 21 20 18 14 10 7 4 2 360 359 358 357 356 355 354 353 353 352 352 352 351 349 347 345 343 341 338 335 331 326 322 317 312 304 297 291 287 284 284 291 299 300 298 299
159 158 157 154 151 149 147 144 137 124 113 97 74 59 36 19 2 349 342 330 329 339 346 356 2 6 17 27 33 36 39 42 44 43 40 36 31 28 27 26 25 25 22 19 15 11 9 6 5 4 4 3 2 1 1 359 359 358 358 357 357 356 355 354 352 350 349 347 345 343 338 332 326 319 313 306 299 290 282 280 283 290 297 298 297
161 161 159 156 154 152 150 146 139 128 120 102 86 79 58 40 24 13 4 356 359 3 7 18 20 25 38 44 46 48 49 49 49 46 43 38 33 30 29 28 29 28 25 22 18 14 13 12 11 10 10 9 8 6 5 4 3 2 2 1 0 0 360 359 358 355 353 353 352 351 349 345 339 331 324 318 311 299 287 281 281 282 287 297 300
163 163 160 155 155 154 152 150 143 134 122 97 92 91 64 58 35 1 349 358 11 21 29 35 39 47 55 55 56 56 55 55 54 51 47 42 39 37 36 35 36 34 31 28 25 22 20 18 17 15 13 12 10 9 8 7 6 5 5 5 5 5 4 3 2 360 357 356 355 354 354 353 350 345 338 331 325 315 300 287 285 285 282 289 301
162 162 159 154 153 153 153 151 143 136 128 120 172 173 112 72 5 323 334 359 14 31 39 46 55 59 61 63 65 65 65 63 60 57 54 51 49 46 45 43 41 39 36 33 30 27 24 21 19 17 14 13 12 11 11 10 10 9 9 9 9 8 8 6 5 3 1 359 358 357 355 354 352 350 346 343 338 331 320 299 289 289 285 285 293
162 160 156 154 154 154 156 154 146 145 156 186 199 186 160 51 336 322 341 360 19 45 50 56 62 65 71 77 78 75 73 70 67 64 61 59 56 52 50 47 44 42 39 35 32 29 26 23 21 19 17 16 15 14 14 13 12 12 11 11 10 10 9 8 7 5 3 1 359 357 356 354 352 350 348 347 344 338 330 315 298 290 287 288 294
162 160 156 156 157 158 159 156 153 166 189 193 185 173 166 355 331 312 328 352 35 59 68 75 81 88 92 90 87 82 80 77 74 70 65 62 59 56 54 50 46 43 39 36 33 30 28 26 24 22 21 19 18 17 16 15 14 13 12 11 10 9 9 8 6 5 3 1 359 357 356 353 351 349 348 345 343 339 334 328 320 307 296 291 295
163 161 159 159 162 162 161 161 169 185 192 186 178 170 171 208 236 249 305 14 63 75 89 96 103 107 101 97 92 89 88 84 79 75 70 66 63 60 57 51 47 45 41 38 36 33 30 27 25 23 21 19 18 17 16 15 14 13 12 11 9 9 8 7 5 4 2 1 360 358 356 354 351 348 346 344 342 339 335 333 329 324 315 302 296
162 163 161 162 165 166 165 168 177 184 183 179 175 173 182 204 212 222 342 77 83 90 101 106 111 109 103 101 99 96 93 88 82 77 72 69 65 61 57 53 50 47 43 39 36 32 30 27 24 22 20 18 18 17 17 15 14 13 11 10 9 8 7 7 6 4 3 1 1 359 356 354 351 348 345 343 341 338 336 334 330 326 322 316 307
163 165 164 164 168 170 170 172 177 180 178 175 174 176 187 197 195 171 109 105 101 103 108 110 110 109 106 105 102 98 94 87 82 78 74 71 67 62 58 54 49 45 41 37 34 31 29 27 25 23 21 20 18 18 18 16 15 13 11 10 9 7 7 6 6 5 4 3 2 0 358 355 352 349 346 342 339 336 334 332 330 326 323 320 315
167 169 167 167 170 171 171 173 176 177 174 173 174 178 185 187 169 134 120 115 113 113 112 112 113 111 109 106 102 98 93 87 83 80 76 72 67 62 58 52 47 43 39 36 33 32 30 28 27 25 23 21 20 19 18 17 15 13 11 9 7 6 6 5 5 5 5 4 3 2 360 358 355 351 347 342 338 336 333 331 330 328 325 323 318
171 171 169 169 171 171 171 173 174 174 172 173 177 179 181 174 148 131 125 123 122 122 119 117 116 114 110 106 102 97 92 88 84 80 76 71 65 60 55 50 46 43 40 38 36 34 32 30 28 27 25 23 21 19 18 17 15 12 10 8 6 5 5 4 4 4 5 4 4 3 2 360 358 353 349 346 341 337 334 332 331 329 327 325 322
171 171 170 170 171 170 172 173 171 171 171 173 175 173 166 154 138 132 130 129 129 127 124 120 118 115 110 105 102 97 92 88 84 79 74 68 62 57 53 50 47 45 44 42 39 36 34 32 30 28 26 24 22 19 17 16 14 11 9 7 6 5 3 3 4 3 4 4 3 3 3 1 358 355 352 350 346 340 336 333 330 329 327 325 323
171 172 171 172 172 171 172 171 169 170 173 173 170 161 152 144 137 135 133 131 132 130 126 122 118 114 109 105 102 97 92 88 83 78 71 66 61 57 55 53 51 49 47 44 41 38 35 33 31 29 27 25 24 22 19 15 12 10 9 8 7 6 4 4 4 3 3 3 2 2 1 360 358 356 355 352 347 343 340 335 332 330 328 326 324
172 172 172 173 172 171 170 168 168 171 174 170 161 151 148 144 139 136 133 132 137 134 128 123 118 113 110 107 103 98 93 88 82 76 70 66 63 61 59 57 54 51 47 43 39 36 34 32 30 28 26 25 25 23 20 16 13 11 9 7 7 6 5 4 4 4 3 2 2 1 359 358 358 356 353 350 347 345 343 339 335 331 329 327 325
173 172 173 173 172 170 169 168 169 172 170 162 153 149 148 147 141 136 133 133 138 136 129 124 119 114 112 108 104 99 94 88 81 76 73 69 66 64 61 58 53 49 45 41 38 35 33 30 28 27 26 25 24 22 20 17 15 13 10 8 7 6 5 5 6 6 4 3 2 0 359 358 357 355 352 349 346 344 343 341 338 333 329 326 324
173 173 174 174 172 171 170 169 170 169 164 157 152 150 150 150 145 139 135 136 138 135 129 123 119 117 115 110 105 100 93 88 84 80 77 73 69 66 61 56 51 47 43 39 36 34 32 29 28 27 26 25 24 21 19 17 16 14 11 9 9 8 8 8 9 7 5 4 2 1 1 359 357 354 352 348 344 341 340 339 338 336 332 328 325
175 175 175 175 174 173 171 171 169 166 161 157 154 152 153 154 151 145 142 141 140 136 130 125 121 120 117 111 106 101 95 91 87 84 81 75 70 64 59 54 50 45 41 39 36 33 31 29 28 27 26 25 22 19 18 16 16 15 12 13 14 13 12 12 11 9 7 6 4 2 1 360 357 354 352 348 342 339 338 337 336 336 334 331 327
176 177 176 175 174 172 171 171 167 162 157 153 152 152 155 158 156 151 148 145 139 134 130 128 125 122 118 112 107 102 98 94 91 87 82 74 67 62 57 52 48 43 40 38 35 33 31 30 28 27 26 24 21 18 16 15 15 15 13 16 19 18 16 15 13 11 10 7 5 3 2 360 357 355 353 347 342 339 337 337 336 334 332 330 327
176 177 177 175 173 171 171 169 164 159 154 151 151 155 159 163 159 152 148 143 136 131 129 128 126 122 118 113 108 105 102 98 94 88 79 71 65 60 55 50 45 41 39 36 35 33 31 29 28 26 25 24 22 19 16 14 15 15 15 19 22 22 20 17 14 13 12 9 6 5 2 359 357 356 352 347 343 341 339 338 337 334 331 328 326
180 179 177 175 174 172 170 166 161 159 155 151 153 160 163 160 154 148 145 141 136 132 130 129 126 122 118 114 110 108 104 100 94 86 77 70 64 58 53 48 44 40 37 35 34 33 31 29 28 27 26 25 23 21 18 16 15 15 18 22 23 22 21 18 15 13 12 10 9 8 4 360 358 356 351 347 345 343 343 342 339 335 332 330 327
182 182 179 176 175 172 168 165 162 160 156 152 157 163 160 153 150 147 144 141 137 134 131 129 125 121 117 114 111 108 104 99 92 85 77 71 65 59 53 48 44 40 37 35 34 33 31 29 28 27 27 26 24 23 21 20 18 18 20 23 21 20 19 17 15 13 11 10 10 11 9 3 360 357 353 350 348 346 346 346 342 338 335 332 329
181 180 177 175 173 170 168 166 163 160 156 155 160 160 155 151 150 147 143 139 137 134 131 127 122 118 115 112 109 105 101 96 91 85 78 72 65 59 53 48 43 40 38 35 34 33 31 30 29 28 27 25 24 24 24 24 24 23 24 23 18 15 15 14 12 11 8 7 8 10 11 6 1 359 357 355 353 351 350 350 347 343 339 335 333
180 179 176 174 172 170 168 166 163 160 158 159 160 157 154 153 151 146 141 138 136 132 129 125 120 116 113 109 107 103 98 94 89 84 79 72 66 59 52 47 44 41 38 36 35 33 32 31 30 28 27 26 26 26 26 29 30 29 29 28 21 18 17 14 12 9 4 5 6 8 10 8 4 2 1 360 358 355 353 353 351 347 343 340 338
179 179 177 174 172 170 169 167 166 163 160 160 159 157 156 154 151 146 141 138 135 131 128 124 119 115 111 107 104 101 97 94 89 84 80 73 67 60 53 48 44 42 39 36 35 34 32 31 30 28 28 27 27 28 29 33 35 33 32 31 27 23 19 15 12 9 4 4 5 5 8 8 7 6 6 4 2 359 357 356 354 351 348 345 343
180 179 176 174 173 172 171 169 168 165 161 160 160 159 158 155 151 147 143 139 135 130 127 123 118 115 112 107 103 99 97 95 90 85 80 73 68 63 54 48 45 42 39 37 36 34 33 31 30 30 29 28 28 29 30 34 37 35 33 32 29 25 21 17 16 14 11 9 8 9 10 10 10 11 10 9 6 4 1 359 357 355 351 348 349
178 177 177 174 172 172 172 170 169 167 163 161 162 162 160 156 153 150 146 143 139 133 129 123 118 117 114 108 105 99 96 96 90 85 81 75 72 67 57 49 44 40 38 36 35 35 33 32 31 31 31 29 29 29 30 32 34 34 33 31 28 25 21 20 19 18 17 15 13 13 13 12 13 14 14 13 10 8 6 4 1 359 356 353 356
176 176 177 174 172 172 173 171 170 169 165 163 165 165 162 159 155 153 150 148 144 139 134 128 122 120 116 111 107 101 96 95 90 86 83 77 74 69 59 49 42 38 36 35 35 33 32 32 32 31 31 30 30 30 30 32 32 31 31 31 28 23 19 18 19 19 17 17 16 15 14 14 15 16 16 16 14 11 10 9 7 5 2 0 2
176 176 175 174 172 173 174 173 172 170 167 166 168 168 166 162 158 156 154 152 150 147 142 136 130 125 120 115 111 105 100 96 91 87 83 78 73 68 60 50 41 36 34 34 34 33 32 31 31 31 30 30 30 31 31 31 32 31 31 29 26 22 17 15 17 17 17 17 17 16 16 16 17 18 18 18 16 14 13 13 12 12 10 9 8
176 175 174 174 173 173 174 173 173 173 171 169 171 171 168 166 164 162 158 157 156 154 151 146 139 133 127 121 116 112 105 99 95 88 82 77 72 65 58 50 41 36 34 33 32 31 32 32 30 30 29 28 28 29 30 30 30 30 29 27 24 20 16 14 15 15 15 17 18 17 16 17 18 20 19 19 18 17 16 17 18 18 18 18 18
175 174 174 175 174 174 175 174 174 175 174 172 174 173 169 169 170 168 165 164 163 160 158 155 148 142 136 127 120 118 113 106 99 90 82 79 74 66 60 51 42 37 34 33 31 30 30 31 30 29 28 26 26 26 26 26 25 25 24 22 21 19 16 15 16 15 14 16 18 18 17 17 19 20 20 19 19 19 19 20 22 22 23 23 24
175 174 174 175 175 175 176 175 175 176 176 176 175 174 171 171 172 172 171 171 170 166 163 160 156 151 146 137 128 125 122 113 106 97 87 81 76 69 62 54 44 38 35 33 31 29 28 28 29 29 27 26 25 23 22 20 19 18 17 16 16 16 15 15 15 13 14 17 19 20 19 17 18 20 20 19 20 20 21 22 23 24 25 25 26
176 175 175 176 177 177 177 177 177 176 177 177 177 175 174 172 172 174 175 176 176 174 169 165 163 160 156 151 142 135 130 121 114 108 100 93 84 71 64 57 47 39 36 35 33 31 28 26 25 26 27 26 24 22 20 17 14 11 10 10 11 12 13 14 12 11 14 19 20 20 20 18 18 19 19 18 19 20 22 23 24 25 25 26 27
176 176 177 177 177 177 178 179 178 177 177 178 178 178 178 176 175 178 180 180 180 179 176 172 170 170 169 166 160 150 140 133 128 124 118 114 99 78 67 59 46 38 36 35 33 32 29 26 25 25 26 25 24 22 20 17 12 8 6 7 9 9 11 13 12 11 14 19 21 21 20 18 18 19 19 18 18 19 20 23 24 25 25 26 27
177 177 178 178 178 178 179 179 178 177 177 179 180 181 182 182 180 181 183 183 181 181 180 179 179 180 179 176 175 169 155 144 145 148 144 131 108 84 72 60 46 38 34 32 32 29 26 25 26 26 26 24 23 22 21 18 15 11 9 9 10 10 10 11 12 13 17 19 21 22 20 19 18 19 19 19 19 19 20 22 24 25 25 26 28
178 177 178 178 179 180 180 179 178 176 176 178 180 182 184 185 184 183 185 186 184 183 184 185 187 188 184 182 183 182 171 159 161 166 162 144 114 88 69 55 46 39 32 30 31 26 21 22 24 26 27 26 23 22 21 19 16 14 11 10 9 8 8 8 10 15 20 21 21 21 20 18 18 17 18 19 20 20 21 22 24 24 25 26 27